Regional Weather Roundup
Issued by NWS Northern Indiana

Home | Current Version | Previous Version | Graphics & Text | Print | Product List | Glossary On
Versions: 1 2 3 4 5 6 7 8 9 10 11 12 13 14 15 16 17 18 19 20 21 22 23 24 25 26 27 28 29 30 31 32 33 34 35 36 37 38 39 40 41 42 43 44 45 46 47 48 49 50
000
ASUS43 KIWX 300410
RWRIWX

KIWX WEATHER ROUNDUP
NATIONAL WEATHER SERVICE NORTHERN INDIANA
1200 AM EDT THU MAR 30 2017

NOTE: "FAIR" INDICATES FEW OR NO CLOUDS BELOW 12,000 FEET WITH NO
SIGNIFICANT WEATHER AND/OR OBSTRUCTIONS TO VISIBILITY.

* THESE STATIONS ARE NOT UNDER NWS QUALITY CONTROL. THEY ALSO MAY NOT
  REPORT WEATHER SUCH AS PRECIPITATION OR FOG.

INZ001>027-300500-
NORTHERN INDIANA

CITY           SKY/WX    TMP DP  RH WIND       PRES   REMARKS
GARY*          LGT RAIN  45  38  78 NE15      30.03F
VALPARAISO     CLOUDY    47  36  65 E17       30.04F
MICHIGAN CITY* CLOUDY    45  37  76 E5        30.07F
LAPORTE*       LGT RAIN  46  36  69 E15       30.07S
KNOX*          CLOUDY    46  14  27 E9G22     30.06R
SOUTH BEND     CLOUDY    47  34  60 E10G21    30.09S
GOSHEN         LGT RAIN  47  33  58 E17       30.07F
MONTICELLO*    CLOUDY    48  38  68 E7        30.00F
LOGANSPORT*    CLOUDY    45  37  76 E13G22    30.03R
ROCHESTER*     CLOUDY    48  37  66 E15G24    30.06S
WARSAW*        CLOUDY    46  34  61 E16G22    30.05F
ANGOLA*        CLOUDY    46  32  57 E17       30.10F
FORT WAYNE     CLOUDY    47  34  60 NE12      30.12R
HUNTINGTON*    LGT RAIN  44  37  75 E10G17    30.07R
PERU/GRISSOM   CLOUDY    46  39  76 E20       30.00S
MARION*        CLOUDY    48  37  65 E15       30.04R

$$
INZ028>050-300500-
CENTRAL INDIANA

CITY           SKY/WX    TMP DP  RH WIND       PRES   REMARKS
LAFAYETTE      LGT RAIN  50  44  80 E12       29.98S
KOKOMO*        CLOUDY    48  39  71 E14       30.02S
MUNCIE*        MOCLDY    50  41  71 E16       30.00F
INDIANAPOLIS   CLOUDY    55  43  63 SE16G25   29.97F

$$
MIZ043>046-050>051-056>058-064>065-071>073-077>080-300500-
SOUTHWEST LOWER MICHIGAN

CITY           SKY/WX    TMP DP  RH WIND       PRES   REMARKS
BATTLE CREEK   CLOUDY    43  39  86 E13       30.14F
BENTON HARBOR  CLOUDY    48  38  68 NE9       30.11R
COLDWATER*     CLOUDY    46  32  58 E15       30.13F
HILLSDALE*     CLOUDY    41  32  70 E13       30.13F
HOLLAND        LGT RAIN  41  35  79 NE13G20   30.17S
GRAND RAPIDS   RAIN      38  35  89 NE10      30.20S
KALAMAZOO      LGT RAIN  45  38  76 E8        30.14S
STURGIS*       CLOUDY    46  35  66 E10       30.11F
THREE RIVERS*  CLOUDY    47  34  61 E14G20    30.11F

$$
OHZ001>008-015>018-024>025-300500-
NORTHWEST OHIO

CITY           SKY/WX    TMP DP  RH WIND       PRES   REMARKS
WAUSEON*       CLOUDY    45  34  65 NE12      30.16R
DEFIANCE       CLOUDY    46  33  60 E7        30.14S
FINDLAY        MOCLDY    48  30  49 NE12      30.11S
TOLEDO EXPRESS CLOUDY    46  32  58 E9        30.14F
TOLEDO METCALF CLOUDY    46  34  62 NE10      30.16F
LIMA           CLOUDY    46  34  62 NE10      30.08R

$$
AND FOR LAKE MICHIGAN COASTAL AND OPEN LAKE BUOY OBSERVATIONS

STATION/POSITION TEMP    WIND        PRES    VSBY  WAVE
                 AIR SEA DIR/SP/G                  HT/PER
                 (F)     (DEG/KT/KT) (MB)    (MI)  (FT/S)
CALUMET HARBOR    43      50/ 13/ 17 1016.7F
MICHIGAN CITY     47      70/ 13/ 14   N/A
BURNS HARBOR      45      80/ 12/ 14 1018.3S

$$
&&




USA.gov is the U.S. government's official web portal to all federal, state and local government web resources and services.